TimePST,TemperatureF,Dew PointF,Humidity,Sea Level PressureIn,VisibilityMPH,Wind Direction,Wind SpeedMPH,Gust SpeedMPH,PrecipitationIn,Events,Conditions,WindDirDegrees,DateUTC
12:08 AM,37.4,37.4,100,30.11,10.0,SE,3.5,-,N/A,,Overcast,130,2013-02-18 08:08:00
12:58 AM,37.9,37.6,99,30.11,10.0,East,1.2,-,N/A,,Overcast,100,2013-02-18 08:58:00
1:33 AM,37.4,37.4,100,30.08,2.0,SW,1.2,-,N/A,,Overcast,230,2013-02-18 09:33:00
1:38 AM,37.4,37.4,100,30.07,2.0,Calm,Calm,-,N/A,,Overcast,0,2013-02-18 09:38:00
1:43 AM,37.4,37.4,100,30.07,4.0,Calm,Calm,-,N/A,,Overcast,0,2013-02-18 09:43:00
1:58 AM,36.5,36.3,99,30.09,10.0,Calm,Calm,-,N/A,,Overcast,0,2013-02-18 09:58:00
2:58 AM,35.6,35.4,99,30.07,10.0,Calm,Calm,-,N/A,,Mostly Cloudy,0,2013-02-18 10:58:00
3:28 AM,35.6,35.6,100,30.05,10.0,Calm,Calm,-,N/A,,Mostly Cloudy,0,2013-02-18 11:28:00
3:33 AM,35.6,35.6,100,30.04,10.0,Calm,Calm,-,N/A,,Mostly Cloudy,0,2013-02-18 11:33:00
3:58 AM,35.6,35.2,99,30.06,10.0,Calm,Calm,-,N/A,,Overcast,0,2013-02-18 11:58:00
4:48 AM,35.6,35.6,100,30.02,10.0,South,2.3,-,N/A,,Overcast,170,2013-02-18 12:48:00
4:58 AM,35.6,35.2,99,30.04,10.0,West,1.2,-,N/A,,Overcast,260,2013-02-18 12:58:00
5:58 AM,35.1,34.9,99,30.03,10.0,SSW,2.3,-,N/A,,Overcast,200,2013-02-18 13:58:00
6:58 AM,35.4,35.2,99,30.02,10.0,SSE,2.3,-,N/A,,Overcast,160,2013-02-18 14:58:00
7:58 AM,34.2,34.0,99,30.02,10.0,SSW,2.3,-,N/A,,Overcast,200,2013-02-18 15:58:00
8:58 AM,37.8,37.4,99,30.00,10.0,SE,5.8,-,N/A,,Overcast,140,2013-02-18 16:58:00
9:58 AM,39.9,37.6,91,30.00,10.0,SW,2.3,-,N/A,,Overcast,220,2013-02-18 17:58:00
10:58 AM,41.2,37.2,86,29.99,10.0,WSW,3.5,-,N/A,,Overcast,240,2013-02-18 18:58:00
11:58 AM,42.4,36.9,81,29.97,10.0,SW,4.6,-,N/A,,Mostly Cloudy,230,2013-02-18 19:58:00
12:40 PM,44.6,37.4,76,29.93,10.0,SW,6.9,-,N/A,Rain,Light Rain,220,2013-02-18 20:40:00
12:58 PM,43.7,37.8,80,29.95,10.0,SW,5.8,-,0.00,Rain,Light Rain,220,2013-02-18 20:58:00
1:05 PM,44.6,37.4,76,29.93,10.0,SSW,8.1,-,N/A,,Overcast,210,2013-02-18 21:05:00
1:20 PM,44.6,37.4,76,29.92,10.0,SSW,9.2,-,N/A,,Overcast,210,2013-02-18 21:20:00
1:55 PM,44.6,35.6,71,29.91,10.0,SW,10.4,-,N/A,,Overcast,220,2013-02-18 21:55:00
1:58 PM,45.1,36.1,71,29.93,10.0,SW,8.1,-,0.00,,Overcast,220,2013-02-18 21:58:00
2:03 PM,44.6,35.6,71,29.91,10.0,SSW,10.4,-,N/A,,Mostly Cloudy,200,2013-02-18 22:03:00
2:08 PM,44.6,35.6,71,29.90,10.0,SSW,8.1,-,N/A,,Mostly Cloudy,210,2013-02-18 22:08:00
2:18 PM,44.6,35.6,71,29.90,10.0,SW,10.4,-,N/A,,Scattered Clouds,220,2013-02-18 22:18:00
2:58 PM,45.7,35.4,67,29.91,10.0,SW,6.9,-,N/A,,Overcast,220,2013-02-18 22:58:00
3:58 PM,45.5,35.1,67,29.89,10.0,SSW,8.1,-,N/A,,Overcast,210,2013-02-18 23:58:00
4:58 PM,44.8,34.3,67,29.86,10.0,SSW,4.6,-,N/A,,Mostly Cloudy,210,2013-02-19 00:58:00
5:26 PM,44.6,35.6,71,29.84,10.0,SW,5.8,-,N/A,Rain,Light Rain,220,2013-02-19 01:26:00
5:40 PM,44.6,35.6,71,29.83,10.0,SSW,3.5,-,N/A,,Mostly Cloudy,210,2013-02-19 01:40:00
5:51 PM,42.8,35.6,76,29.83,10.0,SE,2.3,-,N/A,Rain,Light Rain,140,2013-02-19 01:51:00
5:58 PM,43.5,35.2,73,29.85,10.0,Variable,2.3,-,0.00,Rain,Light Rain,0,2013-02-19 01:58:00
6:04 PM,42.8,35.6,76,29.82,10.0,South,1.2,-,N/A,,Mostly Cloudy,180,2013-02-19 02:04:00
6:58 PM,43.2,35.1,73,29.83,10.0,Calm,Calm,-,0.00,,Overcast,0,2013-02-19 02:58:00
7:58 PM,39.9,36.1,86,29.81,10.0,East,2.3,-,N/A,,Mostly Cloudy,100,2013-02-19 03:58:00
8:58 PM,37.6,35.6,93,29.80,10.0,SW,2.3,-,N/A,,Overcast,230,2013-02-19 04:58:00
9:56 PM,37.4,37.4,100,29.78,10.0,Calm,Calm,-,N/A,Rain,Light Rain,0,2013-02-19 05:56:00
9:58 PM,37.4,37.4,100,29.80,10.0,SSW,3.5,-,N/A,Rain,Light Rain,210,2013-02-19 05:58:00
10:54 PM,39.2,37.4,93,29.77,10.0,SW,2.3,-,N/A,,Mostly Cloudy,220,2013-02-19 06:54:00
10:58 PM,38.8,37.9,97,29.79,10.0,SSW,1.2,-,0.00,,Mostly Cloudy,210,2013-02-19 06:58:00
11:02 PM,39.2,37.4,93,29.77,10.0,NE,1.2,-,N/A,Rain,Light Rain,50,2013-02-19 07:02:00
11:25 PM,39.2,37.4,93,29.76,10.0,Calm,Calm,-,N/A,,Scattered Clouds,0,2013-02-19 07:25:00
11:58 PM,38.7,38.5,99,29.77,10.0,NE,1.2,-,0.00,,Mostly Cloudy,50,2013-02-19 07:58:00